Location: Devore Heights
(34.2372°N, 117.4156°W)
Time: 15:10:18
(UTC+00:00)

Tiros 1 despin weight - Pass Details

Date: 19 September 2024
Orbit: 573 x 615 km, 48.2° (Epoch: 04 October)

Event Time Altitude Azimuth Distance (km) Brightness Sun altitude
Exits shadow 10:49:29 15° 15° (NNE) 1,688 ? -33.8°
Drops below altitude 10° 10:50:45 10° 29° (NNE) 1,979 ? -33.6°
Sets 10:53:40 0° 47° (NE) 2,888 ? -33.1°
